Starlink 30073

operational
NORAD ID: 56840 Int'l Des: 2023-079 Owner: SPXS Country: US Constellation: starlink
LEOCIRCULAR

About Starlink 30073

Description loading...

Live Position

Loading 3D Globe...

Upcoming Passes

Altitude History

Altitude vs Time

uPlot chart will show altitude changes over time

Two-Line Element Set

1 56840U 23079T 25260.25009259 .00144167 00000-0 29933-2 0 9992
2 56840 42.9940 245.4711 0015445 136.8667 88.7756 15.44325052 5730
Epoch: Sep 17, 2025 • Age: 22 hours

Current Status

Altitude 446.9 km
Velocity 7.64 km/s
Sub-Earth Point -39.16°S, 65.82°E
Launch Date Jun 4, 2023
Age 2.2 years
Type internet

Technical Details

Classification Payload
Mass 730.00 kg
Dry Mass 700.00 kg
Total Mass 730.00 kg
Length 0.30 m
Diameter 4.10 m
Span 29.00 m
Shape Box + pan
Manufacturer SPXS
Bus Type Starlink V2M
Phase Status In Orbit
Owner/State SPXS/US

Large Constellations

Loading constellations...